Year,Month,Day,Hour,Minute,Value (Times are PST for temperature in C)
2019,05,31,00,00,14.20
2019,05,31,00,01,14.20
2019,05,31,00,02,14.20
2019,05,31,00,03,14.20
2019,05,31,00,04,14.20
2019,05,31,00,05,14.20
2019,05,31,00,06,14.10
2019,05,31,00,07,14.10
2019,05,31,00,08,14.10
2019,05,31,00,09,14.10
2019,05,31,00,10,14.10
2019,05,31,00,11,14.00
2019,05,31,00,12,14.00
2019,05,31,00,13,14.00
2019,05,31,00,14,13.90
2019,05,31,00,15,13.90
2019,05,31,00,16,13.90
2019,05,31,00,17,13.90
2019,05,31,00,18,13.90
2019,05,31,00,19,13.90
2019,05,31,00,20,13.80
2019,05,31,00,21,13.80
2019,05,31,00,22,13.80
2019,05,31,00,23,13.80
2019,05,31,00,24,13.80
2019,05,31,00,25,13.80
2019,05,31,00,26,13.80
2019,05,31,00,27,13.80
2019,05,31,00,28,13.80
2019,05,31,00,29,13.80
2019,05,31,00,30,13.80
2019,05,31,00,31,13.80
2019,05,31,00,32,13.70
2019,05,31,00,33,13.70
2019,05,31,00,34,13.70
2019,05,31,00,35,13.70
2019,05,31,00,36,13.70
2019,05,31,00,37,13.70
2019,05,31,00,38,13.70
2019,05,31,00,39,13.70
2019,05,31,00,40,13.70
2019,05,31,00,41,13.70
2019,05,31,00,42,13.70
2019,05,31,00,43,13.70
2019,05,31,00,44,13.70
2019,05,31,00,45,13.80
2019,05,31,00,46,13.70
2019,05,31,00,47,13.70
2019,05,31,00,48,13.70
2019,05,31,00,49,13.70
2019,05,31,00,50,13.70
2019,05,31,00,51,13.70
2019,05,31,00,52,13.70
2019,05,31,00,53,13.70
2019,05,31,00,54,13.70
2019,05,31,00,55,13.70
2019,05,31,00,56,13.70
2019,05,31,00,57,13.70
2019,05,31,00,58,13.70
2019,05,31,00,59,13.70
2019,05,31,01,00,13.70
2019,05,31,01,01,13.70
2019,05,31,01,02,13.70
2019,05,31,01,03,13.70
2019,05,31,01,04,13.60
2019,05,31,01,05,13.60
2019,05,31,01,06,13.60
2019,05,31,01,07,13.60
2019,05,31,01,08,13.60
2019,05,31,01,09,13.60
2019,05,31,01,10,13.60
2019,05,31,01,11,13.60
2019,05,31,01,12,13.50
2019,05,31,01,13,13.50
2019,05,31,01,14,13.50
2019,05,31,01,15,13.50
2019,05,31,01,16,13.40
2019,05,31,01,17,13.40
2019,05,31,01,18,13.40
2019,05,31,01,19,13.40
2019,05,31,01,20,13.40
2019,05,31,01,21,13.40
2019,05,31,01,22,13.40
2019,05,31,01,23,13.40
2019,05,31,01,24,13.40
2019,05,31,01,25,13.40
2019,05,31,01,26,13.40
2019,05,31,01,27,13.40
2019,05,31,01,28,13.40
2019,05,31,01,29,13.30
2019,05,31,01,30,13.30
2019,05,31,01,31,13.30
2019,05,31,01,32,13.30
2019,05,31,01,33,13.30
2019,05,31,01,34,13.30
2019,05,31,01,35,13.30
2019,05,31,01,36,13.30
2019,05,31,01,37,13.30
2019,05,31,01,38,13.30
2019,05,31,01,39,13.20
2019,05,31,01,40,13.20
2019,05,31,01,41,13.20
2019,05,31,01,42,13.20
2019,05,31,01,43,13.20
2019,05,31,01,44,13.20
2019,05,31,01,45,13.20
2019,05,31,01,46,13.20
2019,05,31,01,47,13.10
2019,05,31,01,48,13.10
2019,05,31,01,49,13.10
2019,05,31,01,50,13.10
2019,05,31,01,51,13.10
2019,05,31,01,52,13.10
2019,05,31,01,53,13.10
2019,05,31,01,54,13.10
2019,05,31,01,55,13.10
2019,05,31,01,56,13.00
2019,05,31,01,57,13.00
2019,05,31,01,58,13.00
2019,05,31,01,59,13.00
2019,05,31,02,00,13.00
2019,05,31,02,01,13.00
2019,05,31,02,02,13.00
2019,05,31,02,03,13.00
2019,05,31,02,04,12.90
2019,05,31,02,05,12.90
2019,05,31,02,06,12.90
2019,05,31,02,07,12.90
2019,05,31,02,08,12.90
2019,05,31,02,09,12.90
2019,05,31,02,10,12.90
2019,05,31,02,11,12.90
2019,05,31,02,12,12.90
2019,05,31,02,13,12.90
2019,05,31,02,14,12.90
2019,05,31,02,15,12.90
2019,05,31,02,16,12.90
2019,05,31,02,17,12.90
2019,05,31,02,18,12.90
2019,05,31,02,19,12.90
2019,05,31,02,20,12.90
2019,05,31,02,21,12.90
2019,05,31,02,22,12.90
2019,05,31,02,23,12.90
2019,05,31,02,24,12.90
2019,05,31,02,25,12.90
2019,05,31,02,26,12.90
2019,05,31,02,27,12.90
2019,05,31,02,28,12.90
2019,05,31,02,29,12.90
2019,05,31,02,30,12.90
2019,05,31,02,31,12.90
2019,05,31,02,32,12.90
2019,05,31,02,33,12.80
2019,05,31,02,34,12.80
2019,05,31,02,35,12.80
2019,05,31,02,36,12.80
2019,05,31,02,37,12.80
2019,05,31,02,38,12.80
2019,05,31,02,39,12.80
2019,05,31,02,40,12.80
2019,05,31,02,41,12.80
2019,05,31,02,42,12.80
2019,05,31,02,43,12.80
2019,05,31,02,44,12.80
2019,05,31,02,45,12.80
2019,05,31,02,46,12.70
2019,05,31,02,47,12.70
2019,05,31,02,48,12.70
2019,05,31,02,49,12.70
2019,05,31,02,50,12.70
2019,05,31,02,51,12.70
2019,05,31,02,52,12.70
2019,05,31,02,53,12.70
2019,05,31,02,54,12.70
2019,05,31,02,55,12.60
2019,05,31,02,56,12.60
2019,05,31,02,57,12.60
2019,05,31,02,58,12.60
2019,05,31,02,59,12.60
2019,05,31,03,00,12.60
2019,05,31,03,01,12.60
2019,05,31,03,02,12.60
2019,05,31,03,03,12.50
2019,05,31,03,04,12.50
2019,05,31,03,05,12.50
2019,05,31,03,06,12.50
2019,05,31,03,07,12.50
2019,05,31,03,08,12.50
2019,05,31,03,09,12.50
2019,05,31,03,10,12.50
2019,05,31,03,11,12.40
2019,05,31,03,12,12.40
2019,05,31,03,13,12.40
2019,05,31,03,14,12.30
2019,05,31,03,15,12.30
2019,05,31,03,16,12.30
2019,05,31,03,17,12.30
2019,05,31,03,18,12.30
2019,05,31,03,19,12.30
2019,05,31,03,20,12.30
2019,05,31,03,21,12.30
2019,05,31,03,22,12.30
2019,05,31,03,23,12.30
2019,05,31,03,24,12.30
2019,05,31,03,25,12.30
2019,05,31,03,26,12.30
2019,05,31,03,27,12.30
2019,05,31,03,28,12.30
2019,05,31,03,29,12.30
2019,05,31,03,30,12.30
2019,05,31,03,31,12.30
2019,05,31,03,32,12.30
2019,05,31,03,33,12.30
2019,05,31,03,34,12.30
2019,05,31,03,35,12.30
2019,05,31,03,36,12.30
2019,05,31,03,37,12.30
2019,05,31,03,38,12.20
2019,05,31,03,39,12.20
2019,05,31,03,40,12.20
2019,05,31,03,41,12.20
2019,05,31,03,42,12.20
2019,05,31,03,43,12.20
2019,05,31,03,44,12.20
2019,05,31,03,45,12.20
2019,05,31,03,46,12.20
2019,05,31,03,47,12.20
2019,05,31,03,48,12.20
2019,05,31,03,49,12.10
2019,05,31,03,50,12.10
2019,05,31,03,51,12.10
2019,05,31,03,52,12.10
2019,05,31,03,53,12.10
2019,05,31,03,54,12.10
2019,05,31,03,55,12.00
2019,05,31,03,56,12.00
2019,05,31,03,57,12.00
2019,05,31,03,58,12.00
2019,05,31,03,59,12.00
2019,05,31,04,00,11.90
2019,05,31,04,01,11.90
2019,05,31,04,02,11.90
2019,05,31,04,03,11.90
2019,05,31,04,04,11.90
2019,05,31,04,05,11.90
2019,05,31,04,06,11.80
2019,05,31,04,07,11.80
2019,05,31,04,08,11.80
2019,05,31,04,09,11.80
2019,05,31,04,10,11.80
2019,05,31,04,11,11.80
2019,05,31,04,12,11.70
2019,05,31,04,13,11.70
2019,05,31,04,14,11.70
2019,05,31,04,15,11.60
2019,05,31,04,16,11.60
2019,05,31,04,17,11.60
2019,05,31,04,18,11.60
2019,05,31,04,19,11.50
2019,05,31,04,20,11.50
2019,05,31,04,21,11.50
2019,05,31,04,22,11.50
2019,05,31,04,23,11.50
2019,05,31,04,24,11.50
2019,05,31,04,25,11.50
2019,05,31,04,26,11.50
2019,05,31,04,27,11.50
2019,05,31,04,28,11.50
2019,05,31,04,29,11.40
2019,05,31,04,30,11.40
2019,05,31,04,31,11.40
2019,05,31,04,32,11.40
2019,05,31,04,33,11.40
2019,05,31,04,34,11.40
2019,05,31,04,35,11.40
2019,05,31,04,36,11.40
2019,05,31,04,37,11.40
2019,05,31,04,38,11.40
2019,05,31,04,39,11.30
2019,05,31,04,40,11.30
2019,05,31,04,41,11.30
2019,05,31,04,42,11.30
2019,05,31,04,43,11.30
2019,05,31,04,44,11.30
2019,05,31,04,45,11.30
2019,05,31,04,46,11.30
2019,05,31,04,47,11.30
2019,05,31,04,48,11.30
2019,05,31,04,49,11.30
2019,05,31,04,50,11.30
2019,05,31,04,51,11.30
2019,05,31,04,52,11.30
2019,05,31,04,53,11.30
2019,05,31,04,54,11.20
2019,05,31,04,55,11.20
2019,05,31,04,56,11.20
2019,05,31,04,57,11.20
2019,05,31,04,58,11.20
2019,05,31,04,59,11.20
2019,05,31,05,00,11.20
2019,05,31,05,01,11.20
2019,05,31,05,02,11.20
2019,05,31,05,03,11.20
2019,05,31,05,04,11.20
2019,05,31,05,05,11.10
2019,05,31,05,06,11.10
2019,05,31,05,07,11.10
2019,05,31,05,08,11.00
2019,05,31,05,09,11.00
2019,05,31,05,10,11.00
2019,05,31,05,11,11.00
2019,05,31,05,12,10.90
2019,05,31,05,13,10.90
2019,05,31,05,14,10.90
2019,05,31,05,15,10.90
2019,05,31,05,16,10.90
2019,05,31,05,17,10.90
2019,05,31,05,18,10.90
2019,05,31,05,19,10.90
2019,05,31,05,20,10.90
2019,05,31,05,21,10.90
2019,05,31,05,22,11.00
2019,05,31,05,23,11.00
2019,05,31,05,24,11.00
2019,05,31,05,25,11.00
2019,05,31,05,26,11.00
2019,05,31,05,27,11.00
2019,05,31,05,28,11.00
2019,05,31,05,29,11.00
2019,05,31,05,30,10.90
2019,05,31,05,31,10.90
2019,05,31,05,32,10.90
2019,05,31,05,33,10.90
2019,05,31,05,34,10.90
2019,05,31,05,35,10.90
2019,05,31,05,36,10.90
2019,05,31,05,37,10.80
2019,05,31,05,38,10.80
2019,05,31,05,39,10.80
2019,05,31,05,40,10.80
2019,05,31,05,41,10.80
2019,05,31,05,42,10.80
2019,05,31,05,43,10.80
2019,05,31,05,44,10.80
2019,05,31,05,45,10.80
2019,05,31,05,46,10.80
2019,05,31,05,47,10.80
2019,05,31,05,48,10.80
2019,05,31,05,49,10.90
2019,05,31,05,50,10.90
2019,05,31,05,51,10.90
2019,05,31,05,52,10.90
2019,05,31,05,53,11.00
2019,05,31,05,54,11.00
2019,05,31,05,55,11.00
2019,05,31,05,56,11.10
2019,05,31,05,57,11.10
2019,05,31,05,58,11.10
2019,05,31,05,59,11.20
2019,05,31,06,00,11.20
2019,05,31,06,01,11.20
2019,05,31,06,02,11.20
2019,05,31,06,03,11.20
2019,05,31,06,04,11.20
2019,05,31,06,05,11.30
2019,05,31,06,06,11.30
2019,05,31,06,07,11.30
2019,05,31,06,08,11.40
2019,05,31,06,09,11.40
2019,05,31,06,10,11.40
2019,05,31,06,11,11.50
2019,05,31,06,12,11.60
2019,05,31,06,13,11.60
2019,05,31,06,14,11.70
2019,05,31,06,15,11.70
2019,05,31,06,16,11.70
2019,05,31,06,17,11.80
2019,05,31,06,18,11.80
2019,05,31,06,19,11.80
2019,05,31,06,20,11.80
2019,05,31,06,21,11.80
2019,05,31,06,22,11.90
2019,05,31,06,23,11.90
2019,05,31,06,24,12.00
2019,05,31,06,25,12.00
2019,05,31,06,26,12.10
2019,05,31,06,27,12.10
2019,05,31,06,28,12.20
2019,05,31,06,29,12.20
2019,05,31,06,30,12.20
2019,05,31,06,31,12.20
2019,05,31,06,32,12.30
2019,05,31,06,33,12.30
2019,05,31,06,34,12.30
2019,05,31,06,35,12.30
2019,05,31,06,36,12.30
2019,05,31,06,37,12.30
2019,05,31,06,38,12.40
2019,05,31,06,39,12.40
2019,05,31,06,40,12.50
2019,05,31,06,41,12.50
2019,05,31,06,42,12.60
2019,05,31,06,43,12.70
2019,05,31,06,44,12.70
2019,05,31,06,45,12.70
2019,05,31,06,46,12.70
2019,05,31,06,47,12.70
2019,05,31,06,48,12.60
2019,05,31,06,49,12.60
2019,05,31,06,50,12.60
2019,05,31,06,51,12.60
2019,05,31,06,52,12.60
2019,05,31,06,53,12.60
2019,05,31,06,54,12.60
2019,05,31,06,55,12.60
2019,05,31,06,56,12.60
2019,05,31,06,57,12.60
2019,05,31,06,58,12.60
2019,05,31,06,59,12.60
2019,05,31,07,00,12.70
2019,05,31,07,01,12.70
2019,05,31,07,02,12.70
2019,05,31,07,03,12.80
2019,05,31,07,04,12.80
2019,05,31,07,05,12.80
2019,05,31,07,06,12.90
2019,05,31,07,07,12.90
2019,05,31,07,08,12.90
2019,05,31,07,09,12.90
2019,05,31,07,10,13.00
2019,05,31,07,11,13.00
2019,05,31,07,12,13.00
2019,05,31,07,13,13.10
2019,05,31,07,14,13.10
2019,05,31,07,15,13.10
2019,05,31,07,16,13.20
2019,05,31,07,17,13.20
2019,05,31,07,18,13.20
2019,05,31,07,19,13.20
2019,05,31,07,20,13.30
2019,05,31,07,21,13.40
2019,05,31,07,22,13.50
2019,05,31,07,23,13.60
2019,05,31,07,24,13.60
2019,05,31,07,25,13.70
2019,05,31,07,26,13.70
2019,05,31,07,27,13.70
2019,05,31,07,28,13.80
2019,05,31,07,29,13.80
2019,05,31,07,30,13.80
2019,05,31,07,31,13.90
2019,05,31,07,32,13.90
2019,05,31,07,33,13.90
2019,05,31,07,34,13.90
2019,05,31,07,35,13.90
2019,05,31,07,36,13.90
2019,05,31,07,37,14.00
2019,05,31,07,38,14.00
2019,05,31,07,39,14.00
2019,05,31,07,40,14.00
2019,05,31,07,41,14.00
2019,05,31,07,42,14.10
2019,05,31,07,43,14.20
2019,05,31,07,44,14.20
2019,05,31,07,45,14.30
2019,05,31,07,46,14.30
2019,05,31,07,47,14.30
2019,05,31,07,48,14.40
2019,05,31,07,49,14.50
2019,05,31,07,50,14.50
2019,05,31,07,51,14.60
2019,05,31,07,52,14.70
2019,05,31,07,53,14.80
2019,05,31,07,54,14.90
2019,05,31,07,55,14.90
2019,05,31,07,56,14.90
2019,05,31,07,57,14.90
2019,05,31,07,58,14.90
2019,05,31,07,59,14.90
2019,05,31,08,00,14.90
2019,05,31,08,01,14.90
2019,05,31,08,02,14.90
2019,05,31,08,03,14.90
2019,05,31,08,04,14.90
2019,05,31,08,05,14.90
2019,05,31,08,06,15.00
2019,05,31,08,07,15.10
2019,05,31,08,08,15.10
2019,05,31,08,09,15.20
2019,05,31,08,10,15.30
2019,05,31,08,11,15.30
2019,05,31,08,12,15.40
2019,05,31,08,13,15.40
2019,05,31,08,14,15.50
2019,05,31,08,15,15.50
2019,05,31,08,16,15.50
2019,05,31,08,17,15.60
2019,05,31,08,18,15.60
2019,05,31,08,19,15.60
2019,05,31,08,20,15.60
2019,05,31,08,21,15.70
2019,05,31,08,22,15.70
2019,05,31,08,23,15.70
2019,05,31,08,24,15.80
2019,05,31,08,25,15.80
2019,05,31,08,26,15.80
2019,05,31,08,27,15.90
2019,05,31,08,28,15.90
2019,05,31,08,29,16.00
2019,05,31,08,30,16.10
2019,05,31,08,31,16.20
2019,05,31,08,32,16.30
2019,05,31,08,33,16.40
2019,05,31,08,34,16.40
2019,05,31,08,35,16.50
2019,05,31,08,36,16.60
2019,05,31,08,37,16.60
2019,05,31,08,38,16.60
2019,05,31,08,39,16.60
2019,05,31,08,40,16.50
2019,05,31,08,41,16.50
2019,05,31,08,42,16.50
2019,05,31,08,43,16.50
2019,05,31,08,44,16.60
2019,05,31,08,45,16.60
2019,05,31,08,46,16.70
2019,05,31,08,47,16.70
2019,05,31,08,48,16.70
2019,05,31,08,49,16.70
2019,05,31,08,50,16.70
2019,05,31,08,51,16.60
2019,05,31,08,52,16.50
2019,05,31,08,53,16.40
2019,05,31,08,54,16.40
2019,05,31,08,55,16.40
2019,05,31,08,56,16.50
2019,05,31,08,57,16.60
2019,05,31,08,58,16.60
2019,05,31,08,59,16.70
2019,05,31,09,00,16.70
2019,05,31,09,01,16.60
2019,05,31,09,02,16.60
2019,05,31,09,03,16.60
2019,05,31,09,04,16.60
2019,05,31,09,05,16.60
2019,05,31,09,06,16.60
2019,05,31,09,07,16.70
2019,05,31,09,08,16.80
2019,05,31,09,09,16.80
2019,05,31,09,10,16.80
2019,05,31,09,11,16.80
2019,05,31,09,12,16.70
2019,05,31,09,13,16.80
2019,05,31,09,14,16.80
2019,05,31,09,15,16.90
2019,05,31,09,16,16.90
2019,05,31,09,17,16.90
2019,05,31,09,18,16.80
2019,05,31,09,19,16.90
2019,05,31,09,20,16.90
2019,05,31,09,21,17.00
2019,05,31,09,22,17.10
2019,05,31,09,23,17.10
2019,05,31,09,24,17.00
2019,05,31,09,25,16.90
2019,05,31,09,26,16.90
2019,05,31,09,27,16.80
2019,05,31,09,28,16.80
2019,05,31,09,29,16.80
2019,05,31,09,30,16.80
2019,05,31,09,31,16.80
2019,05,31,09,32,16.90
2019,05,31,09,33,16.90
2019,05,31,09,34,17.00
2019,05,31,09,35,17.00
2019,05,31,09,36,16.90
2019,05,31,09,37,16.80
2019,05,31,09,38,16.80
2019,05,31,09,39,16.80
2019,05,31,09,40,16.80
2019,05,31,09,41,16.80
2019,05,31,09,42,16.80
2019,05,31,09,43,16.80
2019,05,31,09,44,16.80
2019,05,31,09,45,16.80
2019,05,31,09,46,16.80
2019,05,31,09,47,16.80
2019,05,31,09,48,16.80
2019,05,31,09,49,16.90
2019,05,31,09,50,17.00
2019,05,31,09,51,16.90
2019,05,31,09,52,16.90
2019,05,31,09,53,17.00
2019,05,31,09,54,17.00
2019,05,31,09,55,17.00
2019,05,31,09,56,17.00
2019,05,31,09,57,17.10
2019,05,31,09,58,17.10
2019,05,31,09,59,17.20
2019,05,31,10,00,17.20
2019,05,31,10,01,17.20
2019,05,31,10,02,17.30
2019,05,31,10,03,17.20
2019,05,31,10,04,17.20
2019,05,31,10,05,17.30
2019,05,31,10,06,17.40
2019,05,31,10,07,17.40
2019,05,31,10,08,17.30
2019,05,31,10,09,17.20
2019,05,31,10,10,17.30
2019,05,31,10,11,17.40
2019,05,31,10,12,17.50
2019,05,31,10,13,17.50
2019,05,31,10,14,17.50
2019,05,31,10,15,17.50
2019,05,31,10,16,17.40
2019,05,31,10,17,17.40
2019,05,31,10,18,17.20
2019,05,31,10,19,17.20
2019,05,31,10,20,17.10
2019,05,31,10,21,17.00
2019,05,31,10,22,16.90
2019,05,31,10,23,16.90
2019,05,31,10,24,17.00
2019,05,31,10,25,17.20
2019,05,31,10,26,17.30
2019,05,31,10,27,17.40
2019,05,31,10,28,17.50
2019,05,31,10,29,17.50
2019,05,31,10,30,17.70
2019,05,31,10,31,17.80
2019,05,31,10,32,17.80
2019,05,31,10,33,17.80
2019,05,31,10,34,17.70
2019,05,31,10,35,17.60
2019,05,31,10,36,17.60
2019,05,31,10,37,17.70
2019,05,31,10,38,17.80
2019,05,31,10,39,17.80
2019,05,31,10,40,18.00
2019,05,31,10,41,18.10
2019,05,31,10,42,18.10
2019,05,31,10,43,18.20
2019,05,31,10,44,18.30
2019,05,31,10,45,18.40
2019,05,31,10,46,18.40
2019,05,31,10,47,18.50
2019,05,31,10,48,18.50
2019,05,31,10,49,18.60
2019,05,31,10,50,18.50
2019,05,31,10,51,18.50
2019,05,31,10,52,18.50
2019,05,31,10,53,18.70
2019,05,31,10,54,18.80
2019,05,31,10,55,18.80
2019,05,31,10,56,18.90
2019,05,31,10,57,18.90
2019,05,31,10,58,18.80
2019,05,31,10,59,18.70
2019,05,31,11,00,18.60
2019,05,31,11,01,18.70
2019,05,31,11,02,18.70
2019,05,31,11,03,18.70
2019,05,31,11,04,18.80
2019,05,31,11,05,18.80
2019,05,31,11,06,18.90
2019,05,31,11,07,18.90
2019,05,31,11,08,19.00
2019,05,31,11,09,19.10
2019,05,31,11,10,19.10
2019,05,31,11,11,19.10
2019,05,31,11,12,19.10
2019,05,31,11,13,19.00
2019,05,31,11,14,19.00
2019,05,31,11,15,18.90
2019,05,31,11,16,18.90
2019,05,31,11,17,18.90
2019,05,31,11,18,19.10
2019,05,31,11,19,19.00
2019,05,31,11,20,19.00
2019,05,31,11,21,18.90
2019,05,31,11,22,18.80
2019,05,31,11,23,18.60
2019,05,31,11,24,18.60
2019,05,31,11,25,18.60
2019,05,31,11,26,18.70
2019,05,31,11,27,18.70
2019,05,31,11,28,18.80
2019,05,31,11,29,18.80
2019,05,31,11,30,18.90
2019,05,31,11,31,19.00
2019,05,31,11,32,19.10
2019,05,31,11,33,19.10
2019,05,31,11,34,19.00
2019,05,31,11,35,18.90
2019,05,31,11,36,18.80
2019,05,31,11,37,18.70
2019,05,31,11,38,18.60
2019,05,31,11,39,18.60
2019,05,31,11,40,18.60
2019,05,31,11,41,18.60
2019,05,31,11,42,18.70
2019,05,31,11,43,18.80
2019,05,31,11,44,18.90
2019,05,31,11,45,18.90
2019,05,31,11,46,19.00
2019,05,31,11,47,19.00
2019,05,31,11,48,19.10
2019,05,31,11,49,19.10
2019,05,31,11,50,19.10
2019,05,31,11,51,19.10
2019,05,31,11,52,19.20
2019,05,31,11,53,19.30
2019,05,31,11,54,19.20
2019,05,31,11,55,19.20
2019,05,31,11,56,19.10
2019,05,31,11,57,19.00
2019,05,31,11,58,18.80
2019,05,31,11,59,18.70
2019,05,31,12,00,18.70
2019,05,31,12,01,18.80
2019,05,31,12,02,18.90
2019,05,31,12,03,18.90
2019,05,31,12,04,19.00
2019,05,31,12,05,19.20
2019,05,31,12,06,19.20
2019,05,31,12,07,19.30
2019,05,31,12,08,19.30
2019,05,31,12,09,19.30
2019,05,31,12,10,19.30
2019,05,31,12,11,19.20
2019,05,31,12,12,19.20
2019,05,31,12,13,19.20
2019,05,31,12,14,19.30
2019,05,31,12,15,19.30
2019,05,31,12,16,19.30
2019,05,31,12,17,19.30
2019,05,31,12,18,19.30
2019,05,31,12,19,19.40
2019,05,31,12,20,19.50
2019,05,31,12,21,19.50
2019,05,31,12,22,19.60
2019,05,31,12,23,19.60
2019,05,31,12,24,19.60
2019,05,31,12,25,19.60
2019,05,31,12,26,19.60
2019,05,31,12,27,19.60
2019,05,31,12,28,19.70
2019,05,31,12,29,19.70
2019,05,31,12,30,19.70
2019,05,31,12,31,19.70
2019,05,31,12,32,19.80
2019,05,31,12,33,20.00
2019,05,31,12,34,20.20
2019,05,31,12,35,20.30
2019,05,31,12,36,20.30
2019,05,31,12,37,20.30
2019,05,31,12,38,20.30
2019,05,31,12,39,20.40
2019,05,31,12,40,20.40
2019,05,31,12,41,20.40
2019,05,31,12,42,20.50
2019,05,31,12,43,20.70
2019,05,31,12,44,20.80
2019,05,31,12,45,20.90
2019,05,31,12,46,20.90
2019,05,31,12,47,20.90
2019,05,31,12,48,20.90
2019,05,31,12,49,20.80
2019,05,31,12,50,20.80
2019,05,31,12,51,20.80
2019,05,31,12,52,20.80
2019,05,31,12,53,20.90
2019,05,31,12,54,21.00
2019,05,31,12,55,21.10
2019,05,31,12,56,21.10
2019,05,31,12,57,21.10
2019,05,31,12,58,21.10
2019,05,31,12,59,21.10
2019,05,31,13,00,21.10
2019,05,31,13,01,21.10
2019,05,31,13,02,21.10
2019,05,31,13,03,21.10
2019,05,31,13,04,21.10
2019,05,31,13,05,21.00
2019,05,31,13,06,20.90
2019,05,31,13,07,20.90
2019,05,31,13,08,20.90
2019,05,31,13,09,20.90
2019,05,31,13,10,21.00
2019,05,31,13,11,21.00
2019,05,31,13,12,21.10
2019,05,31,13,13,21.10
2019,05,31,13,14,21.10
2019,05,31,13,15,21.20
2019,05,31,13,16,21.20
2019,05,31,13,17,21.20
2019,05,31,13,18,21.30
2019,05,31,13,19,21.40
2019,05,31,13,20,21.60
2019,05,31,13,21,21.70
2019,05,31,13,22,21.80
2019,05,31,13,23,21.70
2019,05,31,13,24,21.70
2019,05,31,13,25,21.50
2019,05,31,13,26,21.40
2019,05,31,13,27,21.20
2019,05,31,13,28,21.10
2019,05,31,13,29,21.10
2019,05,31,13,30,21.10
2019,05,31,13,31,21.20
2019,05,31,13,32,21.30
2019,05,31,13,33,21.40
2019,05,31,13,34,21.50
2019,05,31,13,35,21.50
2019,05,31,13,36,21.40
2019,05,31,13,37,21.30
2019,05,31,13,38,21.20
2019,05,31,13,39,21.30
2019,05,31,13,40,21.30
2019,05,31,13,41,21.30
2019,05,31,13,42,21.40
2019,05,31,13,43,21.60
2019,05,31,13,44,21.70
2019,05,31,13,45,21.80
2019,05,31,13,46,21.70
2019,05,31,13,47,21.60
2019,05,31,13,48,21.50
2019,05,31,13,49,21.40
2019,05,31,13,50,21.40
2019,05,31,13,51,21.40
2019,05,31,13,52,21.40
2019,05,31,13,53,21.50
2019,05,31,13,54,21.50
2019,05,31,13,55,21.50
2019,05,31,13,56,21.50
2019,05,31,13,57,21.50
2019,05,31,13,58,21.50
2019,05,31,13,59,21.50
2019,05,31,14,00,21.40
2019,05,31,14,01,21.50
2019,05,31,14,02,21.50
2019,05,31,14,03,21.60
2019,05,31,14,04,21.60
2019,05,31,14,05,21.60
2019,05,31,14,06,21.60
2019,05,31,14,07,21.70
2019,05,31,14,08,21.60
2019,05,31,14,09,21.30
2019,05,31,14,10,21.20
2019,05,31,14,11,21.10
2019,05,31,14,12,21.20
2019,05,31,14,13,21.30
2019,05,31,14,14,21.40
2019,05,31,14,15,21.50
2019,05,31,14,16,21.40
2019,05,31,14,17,21.20
2019,05,31,14,18,21.20
2019,05,31,14,19,21.20
2019,05,31,14,20,21.20
2019,05,31,14,21,21.30
2019,05,31,14,22,21.40
2019,05,31,14,23,21.60
2019,05,31,14,24,21.80
2019,05,31,14,25,21.90
2019,05,31,14,26,21.80
2019,05,31,14,27,21.90
2019,05,31,14,28,21.90
2019,05,31,14,29,21.80
2019,05,31,14,30,21.80
2019,05,31,14,31,21.70
2019,05,31,14,32,21.70
2019,05,31,14,33,21.70
2019,05,31,14,34,21.70
2019,05,31,14,35,21.80
2019,05,31,14,36,21.90
2019,05,31,14,37,22.00
2019,05,31,14,38,22.10
2019,05,31,14,39,22.10
2019,05,31,14,40,22.00
2019,05,31,14,41,22.00
2019,05,31,14,42,22.10
2019,05,31,14,43,22.10
2019,05,31,14,44,22.00
2019,05,31,14,45,22.00
2019,05,31,14,46,21.90
2019,05,31,14,47,21.90
2019,05,31,14,48,21.80
2019,05,31,14,49,21.80
2019,05,31,14,50,21.80
2019,05,31,14,51,21.80
2019,05,31,14,52,21.80
2019,05,31,14,53,21.80
2019,05,31,14,54,21.70
2019,05,31,14,55,21.60
2019,05,31,14,56,21.50
2019,05,31,14,57,21.50
2019,05,31,14,58,21.60
2019,05,31,14,59,21.70
2019,05,31,15,00,21.70
2019,05,31,15,01,21.70
2019,05,31,15,02,21.80
2019,05,31,15,03,21.80
2019,05,31,15,04,21.90
2019,05,31,15,05,21.90
2019,05,31,15,06,21.80
2019,05,31,15,07,21.70
2019,05,31,15,08,21.60
2019,05,31,15,09,21.60
2019,05,31,15,10,21.60
2019,05,31,15,11,21.70
2019,05,31,15,12,21.70
2019,05,31,15,13,21.90
2019,05,31,15,14,21.90
2019,05,31,15,15,21.90
2019,05,31,15,16,21.80
2019,05,31,15,17,21.60
2019,05,31,15,18,21.40
2019,05,31,15,19,21.20
2019,05,31,15,20,21.10
2019,05,31,15,21,21.00
2019,05,31,15,22,20.90
2019,05,31,15,23,20.90
2019,05,31,15,24,20.80
2019,05,31,15,25,20.80
2019,05,31,15,26,20.80
2019,05,31,15,27,20.80
2019,05,31,15,28,20.80
2019,05,31,15,29,20.80
2019,05,31,15,30,20.90
2019,05,31,15,31,20.90
2019,05,31,15,32,20.80
2019,05,31,15,33,20.70
2019,05,31,15,34,20.60
2019,05,31,15,35,20.50
2019,05,31,15,36,20.50
2019,05,31,15,37,20.40
2019,05,31,15,38,20.40
2019,05,31,15,39,20.20
2019,05,31,15,40,20.10
2019,05,31,15,41,20.10
2019,05,31,15,42,20.00
2019,05,31,15,43,20.10
2019,05,31,15,44,20.20
2019,05,31,15,45,20.20
2019,05,31,15,46,20.20
2019,05,31,15,47,20.30
2019,05,31,15,48,20.30
2019,05,31,15,49,20.40
2019,05,31,15,50,20.30
2019,05,31,15,51,20.20
2019,05,31,15,52,20.20
2019,05,31,15,53,20.10
2019,05,31,15,54,20.10
2019,05,31,15,55,20.10
2019,05,31,15,56,20.00
2019,05,31,15,57,19.80
2019,05,31,15,58,19.70
2019,05,31,15,59,19.60
2019,05,31,16,00,19.50
2019,05,31,16,01,19.40
2019,05,31,16,02,19.40
2019,05,31,16,03,19.30
2019,05,31,16,04,19.20
2019,05,31,16,05,19.30
2019,05,31,16,06,19.30
2019,05,31,16,07,19.30
2019,05,31,16,08,19.40
2019,05,31,16,09,19.50
2019,05,31,16,10,19.60
2019,05,31,16,11,19.50
2019,05,31,16,12,19.50
2019,05,31,16,13,19.40
2019,05,31,16,14,19.40
2019,05,31,16,15,19.40
2019,05,31,16,16,19.40
2019,05,31,16,17,19.40
2019,05,31,16,18,19.30
2019,05,31,16,19,19.40
2019,05,31,16,20,19.40
2019,05,31,16,21,19.40
2019,05,31,16,22,19.50
2019,05,31,16,23,19.50
2019,05,31,16,24,19.40
2019,05,31,16,25,19.40
2019,05,31,16,26,19.50
2019,05,31,16,27,19.60
2019,05,31,16,28,19.60
2019,05,31,16,29,19.50
2019,05,31,16,30,19.50
2019,05,31,16,31,19.60
2019,05,31,16,32,19.60
2019,05,31,16,33,19.60
2019,05,31,16,34,19.70
2019,05,31,16,35,19.80
2019,05,31,16,36,19.80
2019,05,31,16,37,20.10
2019,05,31,16,38,20.20
2019,05,31,16,39,20.20
2019,05,31,16,40,20.30
2019,05,31,16,41,20.40
2019,05,31,16,42,20.50
2019,05,31,16,43,20.70
2019,05,31,16,44,20.80
2019,05,31,16,45,20.90
2019,05,31,16,46,21.00
2019,05,31,16,47,21.20
2019,05,31,16,48,21.40
2019,05,31,16,49,21.50
2019,05,31,16,50,21.70
2019,05,31,16,51,21.70
2019,05,31,16,52,21.80
2019,05,31,16,53,21.90
2019,05,31,16,54,22.00
2019,05,31,16,55,21.90
2019,05,31,16,56,21.90
2019,05,31,16,57,22.00
2019,05,31,16,58,22.00
2019,05,31,16,59,22.10
2019,05,31,17,00,22.00
2019,05,31,17,01,22.00
2019,05,31,17,02,22.00
2019,05,31,17,03,22.00
2019,05,31,17,04,22.00
2019,05,31,17,05,22.10
2019,05,31,17,06,22.10
2019,05,31,17,07,22.10
2019,05,31,17,08,22.10
2019,05,31,17,09,22.10
2019,05,31,17,10,22.10
2019,05,31,17,11,22.10
2019,05,31,17,12,22.10
2019,05,31,17,13,22.20
2019,05,31,17,14,22.20
2019,05,31,17,15,22.20
2019,05,31,17,16,22.20
2019,05,31,17,17,22.20
2019,05,31,17,18,22.20
2019,05,31,17,19,22.30